[[{"header":{"parameterUnit":"m.s-1","parameterCategory":1,"la1":30.2991,"la2":30.254,"lo1":-89.0895,"lo2":-89.0444,"dy":0.0017,"dx":0.0017,"nx":28,"ny":28,"refTime":"2024-06-30T21:00:00:Z","depth":0,"parameterNumber":2,"parameterNumberName":"U-component_of_WINDS"},"data":[0,0,0,0,0,0,0,0,0,0,0,0,0,0,0,0,0,0,0,0,0,0,0,0,0,0,0,0,0,0,0,0,0,0,0,0,0,0,0,0,0,0,0,0,0,0,0,0,0,0,0,0,0,0,0,0,0,0,-2.6473,-2.6474,0,-2.6544,-2.6545,-2.6545,-2.6569,-2.6569,-2.6568,-2.6568,-2.664,-2.6642,-2.6645,0,0,0,0,0,0,0,0,0,0,0,0,0,-2.636,-2.6362,-2.6473,-2.6474,-2.6475,-2.6544,-2.6545,-2.6546,-2.6569,-2.6569,-2.6568,-2.6568,-2.664,-2.6642,-2.6645,0,0,0,0,0,0,0,0,0,0,0,0,0,-2.6417,-2.6362,-2.6473,-2.6495,-2.6497,-2.6544,-2.6545,-2.6546,-2.6569,-2.6568,-2.6568,-2.6568,-2.6639,-2.6642,-2.6645,-2.6675,0,0,-2.6655,-2.6657,0,0,0,0,0,0,0,0,-2.6414,-2.6422,-2.649,-2.6493,-2.6496,-2.6547,-2.6531,-2.6589,-2.6569,-2.6542,-2.6568,-2.6567,-2.661,-2.6615,-2.663,-2.6678,-2.6681,-2.6656,-2.6658,-2.6659,-2.666,0,0,0,0,0,0,0,-2.641,-2.6419,-2.6501,-2.6491,-2.6495,-2.6502,-2.6509,-2.6542,-2.6577,-2.6544,-2.6546,-2.6554,-2.6611,-2.6626,-2.6631,-2.6682,-2.6655,-2.6658,-2.666,-2.6662,-2.6762,-2.6762,0,0,0,0,0,0,-2.6402,-2.6415,-2.6499,-2.6503,-2.6453,-2.6504,-2.6513,-2.6531,-2.6577,-2.6584,-2.6554,-2.6555,-2.6621,-2.6628,-2.6634,-2.6673,-2.6659,-2.6662,-2.6664,-2.6761,-2.6762,-2.6762,0,0,0,0,0,0,-2.64,-2.6409,-2.6496,-2.646,-2.6471,-2.6506,-2.6527,-2.6533,-2.6548,-2.6585,-2.6591,-2.6563,-2.6621,-2.6629,-2.6665,-2.6676,-2.6664,-2.6667,-2.676,-2.6761,-2.6762,-2.675,0,0,0,0,0,0,-2.6396,-2.6408,-2.6419,-2.646,-2.6473,-2.6525,-2.6528,-2.6535,-2.6554,-2.6555,-2.6595,-2.6601,-2.6621,-2.666,-2.6668,-2.668,-2.6669,-2.6759,-2.6761,-2.6762,-2.6749,-2.675,-2.6751,0,0,0,0,0,-2.6392,-2.6412,-2.642,-2.643,-2.6487,-2.6525,-2.6533,-2.6556,-2.6554,-2.6566,-2.659,-2.66,-2.6674,-2.6663,-2.6673,-2.6686,-2.6759,-2.676,-2.6762,-2.6749,-2.675,-2.6751,0,0,0,0,0,0,-2.6371,-2.6418,-2.6426,-2.646,-2.6489,-2.6529,-2.6544,-2.6556,-2.6585,-2.6585,-2.6612,-2.6621,-2.6655,-2.6674,-2.6662,-2.6718,-2.6717,-2.672,-2.6704,-2.6705,-2.6706,-2.67,-2.6672,0,0,0,0,0,-2.6371,-2.6398,-2.6437,-2.6463,-2.6477,-2.6509,-2.6526,-2.6541,-2.6572,-2.6584,-2.661,-2.664,-2.667,-2.6689,-2.6718,-2.6753,-2.6763,-2.6767,-2.6768,-2.6768,-2.677,-2.6792,-2.6794,-2.6767,-2.6767,-2.6767,0,0,-2.637,-2.6399,-2.6414,-2.646,-2.6484,-2.6511,-2.6518,-2.6547,-2.6568,-2.6588,-2.6623,-2.6644,-2.6679,-2.6715,-2.6732,-2.6732,-2.6781,-2.677,-2.677,-2.6772,-2.6794,-2.6796,-2.6798,-2.6768,-2.6768,-2.6768,0,0,-2.6382,-2.6406,-2.6431,-2.6455,-2.6492,-2.6513,-2.6519,-2.6559,-2.6574,-2.661,-2.6626,-2.6652,-2.6703,-2.6728,-2.6747,-2.6772,-2.6782,-2.6781,-2.6784,-2.6805,-2.6807,-2.6809,-2.6818,-2.6821,-2.6784,-2.6784,-2.6784,0,-2.6375,-2.6417,-2.6442,-2.6471,-2.6491,-2.6512,-2.6538,-2.6561,-2.6605,-2.6619,-2.6619,-2.6685,-2.671,-2.6752,-2.6759,-2.6774,-2.6782,-2.6775,-2.6805,-2.6807,-2.6809,-2.6818,-2.6822,-2.6783,-2.6783,-2.6783,-2.6783,0,-2.6408,-2.6437,-2.6453,-2.6496,-2.6519,-2.6546,-2.6576,-2.6596,-2.6611,-2.6632,-2.667,-2.6701,-2.6738,-2.675,-2.6764,-2.6795,-2.6794,-2.6799,-2.6798,-2.6811,-2.682,-2.6824,-2.6783,-2.6783,-2.6783,-2.6783,0,0,-2.6406,-2.6465,-2.647,-2.6491,-2.6534,-2.6557,-2.6587,-2.6623,-2.664,-2.6671,-2.6697,-2.6741,-2.6747,-2.6768,-2.6786,-2.6804,-2.6823,-2.6807,-2.6808,-2.6809,-2.6861,-2.6856,-2.6859,-2.6831,-2.6832,-2.6832,-2.6858,0,-2.6424,-2.6475,-2.65,-2.6542,-2.657,-2.6592,-2.6618,-2.6647,-2.6669,-2.6697,-2.6722,-2.6752,-2.6757,-2.6771,-2.679,-2.6816,-2.6833,-2.6815,-2.6855,-2.6856,-2.6844,-2.6864,-2.6858,-2.688,-2.6861,-2.6862,-2.6862,0,-2.645,-2.6481,-2.6525,-2.6567,-2.658,-2.6602,-2.6639,-2.6665,-2.6701,-2.6715,-2.6741,-2.6759,-2.6792,-2.679,-2.6836,-2.6823,-2.6842,-2.6857,-2.6859,-2.6862,-2.6859,-2.6867,-2.6888,-2.6891,-2.6868,-2.6868,-2.6867,0,-2.6444,-2.6498,-2.6531,-2.6548,-2.6598,-2.6613,-2.6635,-2.667,-2.6691,-2.6724,-2.6738,-2.6774,-2.6794,-2.6822,-2.685,-2.6846,-2.6894,-2.6894,-2.6907,-2.6906,-2.6914,-2.6913,-2.6937,-2.6928,-2.6928,-2.6928,-2.6928,0,-2.646,-2.6486,-2.653,-2.655,-2.6581,-2.661,-2.664,-2.6664,-2.6695,-2.6721,-2.6744,-2.6768,-2.6803,-2.6832,-2.6854,-2.689,-2.6899,-2.6912,-2.6917,-2.6909,-2.6908,-2.6921,-2.6919,-2.6929,-2.6929,-2.6928,-2.6928,0,-2.6458,-2.6488,-2.6526,-2.6571,-2.6583,-2.6603,-2.6642,-2.6664,-2.6688,-2.6721,-2.6731,-2.6769,-2.6805,-2.6835,-2.6883,-2.6898,-2.6934,-2.6941,-2.6922,-2.6925,-2.6936,-2.6934,-2.6968,-2.6975,-2.6962,-2.6962,-2.6962,0,-2.6465,-2.6486,-2.6534,-2.6553,-2.6574,-2.6605,-2.6627,-2.6658,-2.668,-2.6724,-2.674,-2.6778,-2.681,-2.6867,-2.6899,-2.6936,-2.6943,-2.6953,-2.6949,-2.6941,-2.6943,-2.6941,-2.6943,-2.6952,-2.6952,-2.6952,-2.6952,0,-2.6476,-2.6491,-2.6521,-2.6558,-2.6584,-2.6614,-2.6646,-2.666,-2.6698,-2.6722,-2.6759,-2.6784,-2.6833,-2.687,-2.6911,-2.6935,-2.695,-2.6954,-2.6959,-2.695,-2.6938,-2.6945,-2.6922,-2.6952,-2.6952,-2.6952,-2.6952,-2.6952,-2.6479,-2.6499,-2.6536,-2.657,-2.6597,-2.6626,-2.6649,-2.6677,-2.6708,-2.675,-2.6767,-2.6805,-2.6843,-2.6899,-2.6923,-2.6954,-2.6956,-2.6964,-2.6965,-2.6966,-2.6965,-2.6934,-2.6962,-2.6962,-2.6962,-2.6962,-2.6962,0,-2.6491,-2.6516,-2.6547,-2.659,-2.6618,-2.6631,-2.6667,-2.6689,-2.6722,-2.6755,-2.6786,-2.683,-2.6868,-2.6904,-2.6943,-2.6961,-2.6969,-2.697,-2.6969,-2.6974,-2.6961,-2.6952,-2.6963,-2.6963,-2.6963,-2.6963,-2.6963,-2.6963,-2.65,-2.6535,-2.6554,-2.6603,-2.6628,-2.6666,-2.6685,-2.6713,-2.674,-2.6787,-2.6818,-2.6842,-2.6877,-2.692,-2.6955,-2.6965,-2.6978,-2.6977,-2.6989,-2.6975,-2.6975,-2.6974,-2.6966,-2.698,-2.698,-2.7,-2.7,-2.7]},{"header":{"parameterUnit":"m.s-1","parameterCategory":1,"la1":30.2991,"la2":30.254,"lo1":-89.0895,"lo2":-89.0444,"dy":0.0017,"dx":0.0017,"nx":28,"ny":28,"refTime":"2024-06-30T21:00:00:Z","depth":0,"parameterNumber":3,"parameterNumberName":"V-component_of_WINDS"},"data":[0,0,0,0,0,0,0,0,0,0,0,0,0,0,0,0,0,0,0,0,0,0,0,0,0,0,0,0,0,0,0,0,0,0,0,0,0,0,0,0,0,0,0,0,0,0,0,0,0,0,0,0,0,0,0,0,0,0,3.6637,3.6637,0,3.672,3.6721,3.6722,3.6804,3.6805,3.6806,3.6807,3.6888,3.689,3.6891,0,0,0,0,0,0,0,0,0,0,0,0,0,3.6546,3.6548,3.6636,3.6638,3.6639,3.672,3.6721,3.6722,3.6804,3.6805,3.6806,3.6808,3.6888,3.6889,3.6891,0,0,0,0,0,0,0,0,0,0,0,0,0,3.6603,3.6548,3.6636,3.6689,3.6695,3.672,3.6721,3.6722,3.6804,3.6805,3.6807,3.6808,3.6888,3.6889,3.6891,3.6869,0,0,3.6896,3.6897,0,0,0,0,0,0,0,0,3.66,3.6606,3.668,3.6686,3.6692,3.6753,3.6719,3.6771,3.6803,3.6762,3.6807,3.6809,3.6842,3.6847,3.6859,3.6873,3.6876,3.6896,3.6897,3.6898,3.6899,0,0,0,0,0,0,0,3.6596,3.6603,3.6669,3.6681,3.6688,3.6708,3.6718,3.6729,3.6792,3.6766,3.6772,3.6781,3.6845,3.6858,3.6862,3.6877,3.6896,3.6898,3.6899,3.69,3.688,3.6878,0,0,0,0,0,0,3.6584,3.6599,3.6667,3.6672,3.6649,3.6709,3.672,3.6732,3.6792,3.6803,3.678,3.6785,3.6854,3.686,3.6865,3.6845,3.6898,3.69,3.6901,3.6881,3.6879,3.6878,0,0,0,0,0,0,3.6582,3.6589,3.6663,3.6637,3.6648,3.6709,3.6722,3.6733,3.6745,3.6802,3.6813,3.6781,3.6855,3.6863,3.6868,3.6848,3.6901,3.6902,3.6883,3.6881,3.6878,3.6802,0,0,0,0,0,0,3.6579,3.6588,3.658,3.6637,3.665,3.6665,3.672,3.6733,3.6748,3.6756,3.6806,3.6816,3.6857,3.6865,3.687,3.6852,3.6903,3.6885,3.6882,3.6879,3.6807,3.6797,3.679,0,0,0,0,0,3.6575,3.6554,3.6579,3.6587,3.6641,3.6664,3.6671,3.672,3.6746,3.6739,3.6777,3.6815,3.685,3.6865,3.6871,3.6853,3.6886,3.6883,3.6879,3.681,3.6799,3.679,0,0,0,0,0,0,3.6491,3.6562,3.6591,3.6587,3.6619,3.6678,3.667,3.6706,3.673,3.6735,3.6794,3.6805,3.6804,3.6829,3.6845,3.6836,3.6874,3.6871,3.6819,3.6809,3.6801,3.6794,3.6905,0,0,0,0,0,3.6473,3.6486,3.6547,3.6538,3.6553,3.6608,3.662,3.6656,3.669,3.6703,3.6741,3.6772,3.6791,3.6802,3.6822,3.6812,3.6824,3.6802,3.6794,3.6787,3.6783,3.6781,3.6773,3.6866,3.6866,3.6866,0,0,3.6433,3.6474,3.6478,3.6522,3.6551,3.6563,3.6619,3.6629,3.6639,3.6705,3.6713,3.6742,3.6781,3.6779,3.678,3.68,3.6761,3.6782,3.6776,3.6776,3.6777,3.6768,3.676,3.6864,3.6864,3.6864,0,0,3.6368,3.64,3.6397,3.6426,3.647,3.6508,3.6507,3.6561,3.6583,3.6593,3.6644,3.6656,3.6686,3.6713,3.673,3.6679,3.6715,3.6684,3.6639,3.6636,3.6629,3.6623,3.6605,3.6598,3.6681,3.6681,3.6681,0,3.6313,3.6335,3.639,3.6398,3.6417,3.648,3.6477,3.6502,3.6549,3.656,3.6583,3.6625,3.6655,3.6661,3.6649,3.6661,3.6662,3.6677,3.6626,3.662,3.6615,3.6599,3.6592,3.6677,3.6677,3.6677,3.6678,0,3.6266,3.628,3.6272,3.6319,3.6336,3.6339,3.6395,3.6406,3.6441,3.6476,3.6486,3.6526,3.6556,3.6561,3.6593,3.6572,3.6583,3.6615,3.6653,3.6601,3.6587,3.6581,3.6671,3.6672,3.6673,3.6674,0,0,3.6146,3.6227,3.6223,3.6246,3.6301,3.6313,3.6319,3.6351,3.6359,3.6391,3.6398,3.6424,3.6455,3.6474,3.6512,3.6509,3.6468,3.6542,3.6544,3.6527,3.6447,3.6422,3.6414,3.6493,3.6492,3.6491,3.6444,0,3.609,3.6106,3.6158,3.6158,3.6172,3.6234,3.624,3.6274,3.6308,3.6326,3.6363,3.6381,3.642,3.6433,3.6434,3.6472,3.6452,3.6477,3.6499,3.6499,3.6486,3.6407,3.638,3.6333,3.6439,3.6438,3.6437,0,3.6026,3.6056,3.6058,3.6115,3.6123,3.6127,3.6162,3.6177,3.6218,3.6243,3.6267,3.631,3.632,3.6358,3.6373,3.6388,3.6401,3.6422,3.6421,3.6424,3.6464,3.6407,3.6319,3.6312,3.6429,3.643,3.643,0,3.5939,3.598,3.5987,3.6005,3.6071,3.6073,3.6101,3.6144,3.616,3.6191,3.6202,3.6232,3.6248,3.6271,3.6321,3.6343,3.6331,3.6372,3.6352,3.635,3.6344,3.6344,3.6257,3.6354,3.6354,3.6354,3.6354,0,3.587,3.5868,3.5949,3.5953,3.5954,3.6015,3.6014,3.6047,3.6085,3.6097,3.6153,3.6162,3.6228,3.6245,3.6285,3.6292,3.6299,3.6319,3.6329,3.6314,3.6311,3.6322,3.6326,3.6352,3.6353,3.6353,3.6353,0,3.5772,3.5826,3.5838,3.5902,3.5918,3.5915,3.597,3.5976,3.6016,3.603,3.6037,3.6098,3.6121,3.6174,3.6211,3.6238,3.6235,3.6254,3.6221,3.6227,3.6204,3.6206,3.612,3.6113,3.6214,3.6213,3.6212,0,3.5724,3.5725,3.579,3.5803,3.5829,3.5848,3.5867,3.5927,3.5944,3.5992,3.5993,3.6022,3.6048,3.6083,3.613,3.6159,3.6179,3.6147,3.6183,3.6168,3.6178,3.6177,3.6178,3.6138,3.6137,3.6136,3.6135,0,3.5633,3.5661,3.5686,3.572,3.5741,3.5771,3.5804,3.5811,3.5879,3.5895,3.5922,3.5942,3.5982,3.601,3.6047,3.6075,3.6116,3.6124,3.612,3.6104,3.6085,3.6095,3.6199,3.6124,3.6126,3.6126,3.6127,3.6127,3.5559,3.5563,3.5611,3.5637,3.5669,3.5699,3.5709,3.5751,3.5774,3.5812,3.5847,3.587,3.5913,3.5968,3.5994,3.6013,3.6033,3.6028,3.6027,3.6025,3.6018,3.6083,3.602,3.602,3.6021,3.6021,3.6021,0,3.5471,3.5505,3.5529,3.5575,3.5596,3.5636,3.5675,3.569,3.571,3.5748,3.5773,3.5804,3.5833,3.5883,3.5916,3.5921,3.5941,3.5928,3.5927,3.5934,3.5998,3.5998,3.5911,3.5911,3.5911,3.5911,3.5911,3.5912,3.5428,3.5438,3.5472,3.5499,3.5534,3.5558,3.5577,3.5606,3.5636,3.5669,3.5694,3.5727,3.5771,3.5808,3.5836,3.585,3.5859,3.584,3.586,3.5918,3.5929,3.5938,3.5938,3.5841,3.5841,3.5794,3.5793,3.5793]}]]